Vorticity
16 16 15 14 13 12 12 12 13 13 14 14 14 14 12 10 9 8 8 7 8 7 8 8 9 11 12 12 10 9 8 7 6 5 6 5 6 6 7 7 6 7 7 8 9 10 10 10 11 10 10 9 10 9 8 10 7 9 8 9 10 9 18 20 26 8 -6 17 -2 -9 8 -1 5 1 -3 3 0 7 8 8 10 6 3 6 10 4 6 10
14 15 16 15 14 13 12 11 11 12 12 13 14 14 14 13 11 10 9 8 8 8 8 9 11 12 12 12 10 9 8 7 7 6 7 6 6 6 7 8 7 8 7 8 9 9 11 10 10 10 10 9 8 8 8 9 8 10 8 10 12 13 22 19 11 -5 -7 14 6 2 3 -4 4 -0 -0 -0 -3 4 6 11 11 9 8 6 7 6 9 9
12 13 15 16 15 13 11 10 9 10 11 12 13 14 14 14 14 12 11 9 8 8 10 12 12 13 12 12 10 10 9 9 9 9 9 9 9 9 9 9 9 9 8 8 8 9 10 9 10 9 10 9 8 9 8 8 9 10 9 10 12 14 16 13 8 -9 -8 14 9 1 -0 0 3 -1 3 1 1 5 3 8 8 9 10 8 8 8 8 5
10 12 14 16 16 14 12 10 9 10 11 12 13 13 13 13 13 11 10 9 9 10 12 13 13 13 12 12 11 11 11 11 11 10 11 11 10 10 10 11 11 10 10 9 9 9 9 9 10 10 9 10 9 9 8 9 10 10 11 9 7 10 5 -4 2 -5 -8 7 5 -1 0 3 2 1 7 5 10 15 11 10 8 10 11 10 7 4 10 10
9 11 13 16 17 15 13 10 9 10 11 12 11 11 11 11 10 10 10 10 10 11 11 11 11 11 11 12 12 13 12 11 11 11 11 12 12 11 11 11 12 12 11 11 10 9 10 9 10 11 11 11 11 12 12 11 10 10 11 12 6 8 6 -12 -11 -1 0 0 -1 3 3 -1 3 7 8 9 18 22 19 17 13 12 11 14 11 3 7 12
7 9 12 15 16 15 12 10 9 9 10 11 10 9 9 9 9 9 9 9 9 9 10 10 11 12 12 13 13 13 13 12 12 12 11 12 12 12 12 11 12 12 13 12 12 11 11 11 11 12 12 12 11 11 14 11 10 11 10 15 12 12 12 -4 -4 4 3 3 -5 -3 8 7 5 2 -3 1 11 17 15 12 13 13 11 16 19 15 12 11
7 7 9 13 16 15 11 9 9 9 10 10 9 8 8 8 9 8 8 8 8 8 9 11 11 12 12 13 13 12 12 12 12 12 12 12 12 13 13 12 12 12 12 12 12 13 13 13 13 13 11 12 12 9 12 13 11 14 13 10 8 13 11 1 11 9 0 15 10 -1 10 16 12 6 3 3 7 12 6 3 11 11 7 10 13 17 20 15
8 7 7 10 15 16 13 9 9 9 9 10 9 8 8 8 8 8 7 7 7 8 9 10 10 11 11 11 12 12 12 13 13 13 12 12 12 13 13 12 11 11 13 13 13 13 13 13 12 13 12 8 7 6 8 11 12 15 15 9 6 12 6 -4 10 13 8 16 9 7 15 16 22 22 15 11 8 10 6 -0 5 4 3 5 1 1 9 13
9 8 7 7 12 16 15 11 9 9 9 9 9 8 8 8 8 8 7 7 7 7 7 8 8 8 9 10 10 11 11 12 12 13 13 12 13 13 13 13 12 12 13 13 14 13 12 12 9 6 7 6 7 10 6 4 10 12 10 11 13 11 3 -1 7 19 26 16 -2 7 15 12 20 18 12 11 7 9 9 1 -1 2 5 5 4 1 2 7
10 9 9 7 8 11 15 15 11 10 9 9 9 8 8 8 8 7 7 7 6 7 6 6 7 7 8 8 9 11 10 11 11 13 13 12 13 13 13 13 13 13 13 13 13 14 14 15 15 10 10 11 13 17 12 7 8 6 5 8 8 4 3 6 9 15 22 15 5 6 5 5 7 5 5 6 5 7 8 5 1 4 7 5 8 7 6 8
9 9 9 9 7 8 10 13 14 13 10 9 9 8 8 7 8 8 7 7 6 6 6 6 6 6 7 6 8 10 9 11 12 12 13 12 13 13 13 13 13 13 13 14 12 13 14 13 15 14 15 17 15 11 10 15 13 6 9 7 -1 -0 8 10 8 11 10 6 7 5 2 5 5 5 7 8 12 12 6 5 4 5 9 6 5 7 9 13
8 8 8 8 8 8 7 9 11 13 14 12 10 9 9 8 8 8 7 7 6 6 6 6 6 6 6 6 8 8 8 11 12 12 11 10 13 13 13 12 12 12 11 13 12 11 11 8 8 7 9 13 13 9 9 16 12 6 13 9 1 5 11 9 4 6 7 6 6 5 6 7 7 8 10 11 12 10 4 4 6 7 9 7 6 8 9 12
7 7 8 8 8 8 8 8 8 10 12 14 14 12 10 9 9 8 8 8 7 6 6 5 5 5 5 6 8 7 7 9 9 10 9 7 10 11 12 10 10 10 8 8 8 8 8 6 6 6 5 4 7 9 9 11 8 7 10 8 6 7 8 9 7 4 7 8 6 6 7 7 9 8 9 11 5 3 5 6 8 7 7 7 6 6 6 8
7 7 6 7 7 8 7 8 8 7 8 10 13 14 14 13 10 9 9 8 8 7 6 5 5 5 5 7 7 6 6 5 6 7 6 6 6 7 8 8 7 6 6 6 5 5 5 4 4 5 4 3 4 4 3 3 3 5 7 6 6 6 7 10 7 3 4 7 7 7 7 6 6 5 5 7 4 2 4 6 8 6 5 6 5 5 5 6
6 6 6 6 6 7 7 7 8 8 7 7 9 11 14 15 14 13 11 9 9 8 7 6 6 6 6 5 4 5 6 6 6 5 4 4 4 5 6 6 6 5 5 5 4 3 3 4 4 3 3 4 4 3 3 3 2 1 4 7 7 4 6 12 13 9 4 6 9 8 7 7 5 5 5 4 3 3 3 6 8 6 5 4 4 5 5 5
6 6 6 6 6 6 6 6 7 8 8 7 7 7 9 11 13 14 14 12 10 9 9 8 8 7 5 5 6 7 8 9 7 4 4 3 3 4 4 4 4 4 4 3 3 3 3 3 3 4 5 5 5 4 3 4 5 5 4 6 8 6 3 6 9 10 8 7 10 7 1 6 7 6 8 7 7 8 7 7 7 7 9 10 9 9 8 7
6 6 5 5 6 6 6 7 7 7 8 9 8 7 7 8 9 11 13 13 13 12 11 9 9 7 7 7 7 6 7 7 6 6 6 4 4 5 4 4 4 4 4 4 4 3 3 4 4 4 4 4 5 5 5 7 9 8 5 3 4 8 9 8 4 5 11 7 9 11 7 15 17 7 7 10 10 9 8 7 7 7 8 11 14 14 14 10
5 5 5 5 5 6 7 7 7 7 7 8 9 10 9 8 7 7 8 10 11 12 12 11 10 9 8 7 7 8 8 6 7 8 7 6 6 6 5 5 5 5 6 6 7 6 5 5 4 4 4 6 5 5 8 8 4 2 4 5 4 7 12 18 18 14 14 8 5 8 6 12 19 15 14 13 10 8 8 9 7 5 4 7 10 12 15 12
5 5 5 5 6 6 7 7 8 8 7 7 8 9 10 10 10 9 7 6 7 7 9 10 11 11 10 10 12 13 10 7 8 8 8 8 7 7 8 8 7 8 8 8 9 9 9 8 8 8 7 8 6 7 8 2 1 4 9 10 6 11 11 11 16 11 8 8 4 7 6 4 10 13 11 6 4 3 4 8 6 5 5 7 9 10 11 10
4 5 5 6 7 7 8 7 7 7 8 7 7 7 8 10 11 11 11 9 8 7 7 7 8 8 10 13 13 11 10 10 8 7 8 8 7 7 7 7 7 8 7 7 7 6 8 9 9 10 9 7 6 9 7 1 6 9 11 9 5 13 9 -2 6 5 -2 -0 -4 1 8 4 3 8 7 1 1 3 2 5 6 5 5 5 6 8 10 10
5 6 7 7 8 8 8 7 7 8 8 7 6 6 5 6 7 9 10 11 11 10 10 8 7 6 6 8 7 7 10 10 9 10 10 9 9 8 7 7 7 8 7 6 5 4 6 7 7 7 7 6 5 7 6 4 8 7 9 12 10 15 7 -4 5 3 -3 1 -6 -6 5 6 5 9 12 7 3 4 4 6 8 7 7 8 9 10 11 9
6 7 7 7 6 7 6 6 7 7 7 8 7 7 6 5 5 6 6 7 9 10 10 12 10 9 10 9 7 6 6 5 7 9 8 8 9 8 8 9 8 8 8 7 7 6 6 5 5 6 4 5 7 8 7 7 9 8 9 11 12 15 9 3 6 4 3 4 -9 -11 2 5 3 8 12 10 4 2 3 6 9 9 9 10 10 13 12 8
6 6 6 6 6 6 6 6 6 6 7 7 7 7 7 6 6 6 5 5 6 8 8 9 9 10 12 12 11 10 9 8 9 11 11 9 8 9 10 10 9 8 7 7 8 8 7 5 5 7 7 6 6 3 4 6 7 7 8 10 13 14 9 4 2 2 0 -5 -9 -2 5 4 6 12 14 11 7 6 8 8 7 6 8 10 11 11 11 9
6 7 7 7 8 8 8 8 7 8 8 7 8 8 7 8 7 7 7 6 5 5 5 5 7 8 9 10 10 10 11 11 11 15 16 13 12 10 9 9 7 7 7 7 8 7 8 9 7 9 11 12 10 6 8 11 10 9 8 8 10 11 11 7 0 -1 -5 -9 -2 5 6 7 9 11 10 8 7 8 10 8 6 6 7 9 11 10 10 13
9 11 11 12 13 14 14 14 13 13 12 11 11 9 9 9 8 7 8 8 7 7 8 10 11 11 9 8 8 9 10 10 11 14 12 11 13 12 11 12 8 6 8 10 12 10 7 7 7 8 10 9 9 8 8 10 10 10 8 7 8 11 14 10 1 1 1 -2 2 2 2 6 7 9 9 8 8 10 13 14 12 13 12 12 14 11 9 12
15 16 16 17 18 18 19 19 20 20 20 19 16 15 15 13 12 11 9 9 7 8 12 13 12 12 12 10 8 6 8 9 9 12 12 9 11 14 15 16 13 11 9 5 5 6 6 7 8 8 9 6 8 11 11 8 3 1 3 6 8 5 4 5 1 1 -1 -3 1 6 9 10 12 17 16 13 13 12 15 18 17 21 25 24 20 16 13 13
17 17 16 16 16 16 17 17 17 18 19 19 18 20 20 18 19 17 14 14 13 13 14 10 7 7 7 8 8 6 8 10 6 7 13 12 11 12 15 17 18 21 18 8 7 10 9 9 8 7 7 8 14 19 20 18 13 10 9 6 6 6 5 8 9 11 12 13 16 21 23 18 15 18 21 21 20 18 17 14 12 19 27 25 18 14 14 15
13 13 12 12 11 12 12 11 12 13 14 13 12 14 14 14 15 15 18 20 20 19 16 10 8 6 6 9 12 11 9 9 10 11 10 9 9 9 10 12 13 17 17 11 14 17 11 8 7 7 8 9 14 17 18 19 20 23 23 18 16 18 19 18 18 22 23 19 21 27 24 16 15 21 25 23 22 24 25 17 8 5 9 15 17 13 9 7
11 11 11 11 11 12 11 11 11 11 12 11 11 11 9 9 10 12 17 17 15 14 12 10 9 9 11 13 14 15 14 14 12 12 7 3 7 8 9 12 13 13 13 11 17 21 22 19 8 5 14 17 16 13 10 10 12 15 18 21 21 21 22 21 20 21 15 6 13 23 20 14 13 19 22 18 14 9 7 11 9 4 7 13 16 20 21 17
12 12 12 12 11 11 11 11 11 12 12 12 11 11 11 14 16 16 17 11 6 6 9 10 9 11 12 10 12 9 10 18 16 13 16 13 10 9 10 11 9 9 9 10 13 17 22 20 6 4 12 13 9 6 4 10 13 11 11 13 14 13 13 13 11 10 6 5 16 19 16 11 7 19 30 20 12 9 3 7 7 4 9 6 5 15 19 13
10 10 10 10 10 10 9 10 10 9 9 8 6 6 9 13 13 14 13 8 6 9 11 10 9 13 7 7 18 8 -5 10 17 11 14 17 15 13 10 9 7 7 10 12 13 12 10 9 4 3 5 9 12 11 12 16 14 11 9 8 10 11 9 8 4 5 7 11 20 22 19 13 6 25 35 7 -0 16 16 12 7 4 8 3 3 16 14 2
7 7 9 9 10 9 7 7 5 4 3 2 2 2 5 8 6 7 10 8 10 11 6 0 4 13 8 8 22 12 -2 12 18 7 6 10 14 12 8 11 12 12 12 12 10 9 8 7 7 9 12 15 18 16 16 16 10 9 10 10 13 14 11 10 6 8 10 5 5 11 12 9 7 18 16 -9 -10 5 5 4 3 1 5 4 1 9 11 1
9 9 9 8 8 6 5 5 3 4 4 3 3 2 4 7 4 3 7 5 6 9 3 -3 3 13 10 7 13 10 8 12 6 1 5 4 3 5 7 10 11 12 15 13 7 5 7 6 4 10 16 9 6 12 18 17 12 11 13 11 9 7 7 15 16 11 10 4 0 3 2 3 13 18 9 -3 1 5 -2 -1 2 2 7 8 1 -2 -3 -4
11 9 7 5 6 5 5 6 5 5 4 2 3 2 3 6 2 2 8 5 1 6 6 -0 2 8 6 8 18 22 21 13 -1 1 10 10 9 8 9 11 7 6 9 10 7 3 4 10 9 12 15 7 4 13 19 18 10 3 3 1 -2 2 4 11 12 3 3 6 3 4 3 3 12 15 12 13 13 3 -8 -7 0 4 2 2 4 1 -4 0
7 6 5 3 4 4 3 5 5 3 3 2 1 1 4 6 3 6 11 5 -2 -1 2 2 3 6 8 12 18 18 18 14 3 5 11 8 8 6 8 17 15 9 6 4 4 1 0 8 11 10 15 12 10 12 9 6 5 4 8 5 0 5 5 7 10 6 6 4 -2 0 -1 -7 -5 -1 4 10 3 -8 -7 2 6 5 2 5 12 10 3 7
3 3 3 3 3 2 2 4 4 2 1 0 1 2 4 2 4 11 9 2 0 -3 -2 3 6 8 10 14 14 6 10 14 5 3 4 -7 -5 6 12 16 16 13 10 3 4 10 9 7 4 1 6 8 11 16 9 5 8 10 10 4 3 7 6 6 7 8 13 7 1 9 9 2 2 5 4 -2 -7 1 12 16 15 13 12 14 16 12 8 12
4 5 4 4 5 4 2 2 3 3 1 -0 1 2 3 4 5 9 7 4 4 -1 -3 3 7 10 9 13 18 4 -3 7 7 7 9 -1 2 14 8 1 4 8 14 15 14 12 11 12 10 6 4 -2 -2 4 4 4 4 3 3 -1 6 13 6 3 3 3 8 6 2 8 12 11 7 0 -5 -6 5 19 17 14 19 16 8 6 13 16 14 9
7 9 7 7 9 8 5 3 2 2 -0 -1 1 2 3 4 1 -0 2 3 0 -2 2 6 6 9 7 9 19 12 -2 1 3 3 8 6 10 15 6 4 9 2 -1 9 8 -2 -1 7 8 9 10 2 -2 -1 0 2 -1 3 12 6 4 8 2 3 11 8 5 4 3 3 5 9 6 -2 -2 4 16 19 8 9 13 5 1 3 1 -1 3 6
2 3 5 7 7 5 6 5 1 -1 -0 0 2 3 2 1 2 1 0 2 2 1 3 5 5 7 8 7 15 24 19 8 -0 -0 5 2 3 7 2 4 12 3 -10 -8 -9 -14 -8 -4 -7 -2 1 -5 -2 5 3 2 0 6 14 12 10 6 -2 -3 -1 -0 2 -2 1 8 10 9 5 7 16 17 16 11 2 3 1 -2 11 17 3 -9 -4 8
1 -5 -2 5 3 0 2 2 1 -0 1 2 1 3 3 4 9 6 -2 -2 4 6 3 4 6 5 7 8 9 18 21 15 9 7 6 3 1 0 -4 -5 2 1 -4 -5 -7 -11 -7 -3 -1 6 7 3 11 17 12 8 10 9 4 5 7 -1 1 10 2 1 8 0 0 6 0 -3 -1 6 16 11 4 4 3 6 9 9 13 14 7 -0 -0 9
6 -4 -3 3 -0 -1 0 -0 1 -0 -1 2 2 3 4 4 6 2 -2 -0 2 4 5 6 7 5 6 10 11 12 14 17 19 12 6 6 1 -3 -2 1 3 0 -0 3 1 -1 0 2 7 11 12 13 13 9 7 10 14 15 4 -2 1 -2 9 22 9 5 12 9 10 4 -10 4 22 23 19 7 -0 1 -1 5 12 7 3 3 -3 -10 -5 10
6 -1 0 5 1 1 2 0 3 1 -1 1 0 1 3 4 5 3 5 6 2 3 5 5 6 7 7 8 11 13 13 14 17 15 13 12 5 3 3 5 7 8 8 7 2 3 7 4 5 8 4 4 3 -2 3 9 11 15 9 5 9 8 11 12 2 6 15 9 11 9 3 15 19 12 14 8 2 3 1 7 12 5 6 4 -11 -17 -4 9
4 1 2 5 3 4 4 1 3 3 2 3 2 3 5 5 7 7 7 7 5 5 6 5 6 7 9 11 12 14 13 13 15 15 14 12 10 11 10 7 8 7 5 7 4 5 9 6 7 11 8 7 7 3 6 12 12 12 9 7 9 5 5 3 -4 3 8 -3 -2 -0 -2 1 -11 -20 -10 -8 -7 1 3 5 7 7 8 -5 -20 -14 1 10
5 4 3 2 3 5 5 3 2 1 3 6 5 6 6 7 9 8 7 8 9 8 7 8 8 7 11 13 11 13 13 13 15 15 14 13 11 11 9 8 9 7 6 8 7 7 9 7 5 8 10 10 7 2 3 8 9 9 8 9 10 10 11 6 -2 2 1 -3 8 6 -2 7 4 -8 -4 2 7 13 11 9 10 11 8 -5 -9 1 8 13
5 4 3 3 3 3 3 3 3 3 4 5 7 9 8 10 12 9 7 9 10 10 9 8 8 10 14 14 12 13 13 13 14 13 12 11 12 12 11 10 8 8 11 11 8 9 9 8 6 6 7 7 5 6 10 12 10 10 10 10 8 9 13 17 18 14 3 3 18 14 4 15 21 17 19 15 5 4 3 6 8 4 1 0 4 8 8 8
4 4 2 4 5 3 3 4 2 3 4 4 6 8 9 11 13 10 9 10 11 10 9 8 9 13 16 15 12 11 12 13 12 11 10 9 12 13 11 12 9 5 11 13 9 11 10 8 10 8 9 12 10 7 8 9 10 9 9 10 8 3 6 14 14 7 1 3 7 3 -0 5 7 8 6 -9 -13 -0 5 3 2 0 4 9 8 6 7 5
4 4 3 2 4 5 4 5 6 6 7 7 5 7 9 11 11 12 11 10 11 11 9 10 13 16 16 13 12 11 11 12 9 9 10 9 11 12 12 16 11 1 8 15 12 16 18 16 17 13 11 14 13 9 7 8 10 10 9 9 9 8 8 7 1 -2 4 5 -1 1 6 4 3 6 1 -10 -4 9 7 2 3 4 6 7 5 5 9 8
4 4 4 2 4 5 4 6 9 9 10 10 9 10 10 9 10 12 11 10 12 11 8 11 15 16 15 10 9 10 9 10 10 10 9 9 11 12 12 17 13 3 8 14 14 17 17 14 15 15 12 10 9 9 10 11 12 12 10 8 10 13 13 9 3 4 10 7 0 5 8 6 9 13 10 5 4 4 1 2 6 6 5 4 5 5 5 7
5 5 5 4 5 6 6 8 7 8 10 9 10 11 9 9 12 12 11 13 14 11 9 12 12 10 10 10 12 14 11 9 9 7 9 11 13 13 12 15 16 11 11 13 14 13 10 7 8 11 14 12 10 10 10 11 13 12 11 12 13 14 12 10 9 10 12 9 6 10 11 9 11 11 10 10 8 6 6 5 5 6 7 7 10 13 11 10
7 7 6 7 9 8 8 9 8 10 10 7 8 11 9 11 13 11 13 14 13 12 12 10 7 7 12 15 16 14 9 8 9 9 11 12 12 14 14 13 15 14 11 10 11 9 6 7 7 9 13 11 8 12 13 11 12 13 12 10 9 10 12 14 15 15 15 14 13 14 14 11 11 12 13 13 11 10 9 7 6 8 10 11 11 10 8 6
8 9 7 7 10 10 9 10 10 10 7 6 10 12 9 11 12 10 11 10 10 13 10 5 7 12 15 15 13 9 8 10 12 11 11 10 9 10 10 8 8 9 7 6 6 4 3 6 8 9 11 8 6 11 13 9 11 13 11 8 9 13 15 14 13 12 12 12 10 9 9 10 10 9 7 8 10 11 10 9 9 8 10 13 10 7 9 11
9 10 10 8 8 8 8 9 10 9 7 8 11 11 9 11 11 9 9 8 10 11 7 7 11 12 12 11 8 6 9 11 11 9 8 8 7 6 7 8 7 8 9 9 8 7 8 9 10 9 8 7 8 10 10 10 13 12 8 9 12 14 13 11 8 7 8 9 9 7 7 9 10 10 8 9 9 9 10 11 11 12 15 17 16 14 18 19
Height
5762 5761 5761 5761 5761 5761 5762 5762 5762 5762 5762 5762 5762 5763 5763 5764 5764 5765 5765 5766 5766 5767 5767 5767 5768 5768 5768 5769 5770 5771 5772 5773 5773 5774 5775 5775 5776 5777 5778 5778 5779 5780 5781 5781 5782 5783 5784 5786 5787 5788 5790 5791 5792 5793 5794 5794 5795 5797 5799 5801 5804 5806 5808 5809 5807 5808 5809 5809 5812 5813 5814 5812 5812 5813 5810 5811 5813 5812 5810 5810 5814 5815 5814 5817 5820 5820 5820 5822
5760 5759 5759 5759 5759 5759 5760 5760 5760 5760 5760 5760 5760 5761 5761 5761 5762 5762 5763 5764 5764 5764 5765 5765 5765 5765 5766 5767 5768 5768 5769 5770 5771 5772 5772 5773 5773 5774 5775 5775 5776 5777 5778 5779 5780 5781 5782 5783 5785 5786 5787 5788 5788 5790 5791 5792 5793 5795 5797 5799 5802 5804 5806 5805 5802 5805 5807 5807 5809 5808 5810 5810 5809 5810 5808 5808 5810 5809 5808 5809 5812 5813 5812 5815 5817 5816 5817 5818
5759 5758 5757 5757 5757 5757 5758 5758 5758 5758 5759 5759 5759 5759 5759 5759 5760 5760 5761 5761 5762 5762 5762 5762 5763 5763 5764 5764 5765 5766 5767 5768 5768 5769 5770 5771 5771 5771 5772 5773 5774 5774 5775 5776 5777 5778 5779 5781 5782 5783 5784 5785 5786 5788 5788 5789 5791 5792 5795 5798 5800 5800 5802 5802 5800 5802 5804 5804 5805 5804 5806 5807 5806 5807 5806 5806 5807 5807 5805 5806 5810 5811 5811 5812 5813 5813 5813 5814
5757 5756 5756 5755 5755 5756 5756 5756 5757 5757 5757 5757 5757 5757 5757 5758 5758 5759 5759 5760 5760 5760 5760 5760 5761 5761 5762 5762 5763 5764 5765 5765 5765 5766 5767 5768 5768 5769 5769 5770 5771 5772 5773 5774 5775 5776 5777 5778 5779 5780 5781 5782 5784 5785 5785 5788 5789 5790 5793 5795 5796 5796 5798 5798 5797 5800 5801 5800 5802 5801 5802 5804 5804 5806 5806 5804 5804 5804 5802 5803 5808 5809 5810 5810 5808 5808 5810 5812
5757 5756 5755 5754 5754 5754 5754 5755 5755 5755 5755 5755 5756 5756 5756 5756 5757 5757 5757 5758 5758 5758 5758 5759 5759 5759 5760 5760 5761 5762 5762 5762 5763 5764 5764 5765 5765 5766 5766 5767 5768 5769 5770 5771 5772 5773 5774 5776 5777 5778 5779 5780 5781 5782 5783 5785 5786 5788 5790 5791 5792 5794 5793 5793 5795 5797 5797 5797 5798 5798 5800 5802 5804 5804 5804 5803 5802 5801 5799 5800 5803 5806 5808 5808 5806 5806 5810 5811
5756 5755 5754 5753 5752 5752 5753 5753 5753 5754 5754 5754 5754 5754 5755 5755 5755 5756 5756 5756 5757 5757 5757 5757 5758 5758 5758 5759 5759 5760 5760 5760 5761 5761 5762 5762 5763 5763 5764 5765 5766 5767 5768 5769 5770 5771 5772 5773 5774 5776 5777 5778 5779 5780 5781 5783 5784 5786 5787 5788 5789 5791 5790 5791 5794 5794 5793 5795 5795 5797 5799 5800 5802 5801 5801 5801 5800 5798 5796 5797 5799 5803 5806 5807 5806 5807 5809 5809
5755 5754 5753 5752 5751 5751 5751 5752 5752 5752 5752 5753 5753 5753 5754 5754 5754 5754 5755 5755 5755 5756 5756 5756 5756 5757 5757 5757 5758 5758 5758 5758 5759 5759 5760 5760 5761 5761 5762 5763 5764 5764 5765 5767 5768 5769 5770 5771 5772 5773 5774 5775 5776 5778 5779 5780 5782 5783 5784 5785 5787 5788 5788 5789 5792 5791 5791 5795 5796 5797 5797 5797 5799 5799 5799 5800 5799 5797 5794 5795 5797 5800 5804 5805 5806 5807 5807 5807
5754 5753 5752 5751 5751 5750 5750 5751 5751 5751 5751 5751 5752 5752 5752 5753 5753 5753 5753 5754 5754 5754 5755 5755 5755 5755 5756 5756 5756 5756 5756 5757 5757 5757 5758 5758 5759 5759 5760 5761 5762 5762 5763 5765 5766 5767 5768 5769 5770 5771 5772 5772 5773 5775 5776 5778 5779 5781 5783 5783 5784 5785 5785 5786 5788 5790 5792 5795 5796 5796 5795 5795 5797 5798 5798 5798 5797 5797 5795 5794 5795 5798 5800 5801 5803 5805 5806 5805
5753 5753 5752 5751 5750 5750 5750 5750 5750 5750 5750 5750 5750 5751 5751 5751 5752 5752 5752 5753 5753 5753 5754 5754 5754 5754 5754 5754 5754 5754 5755 5755 5755 5756 5756 5756 5757 5757 5758 5759 5760 5761 5762 5763 5764 5765 5766 5767 5767 5768 5769 5770 5771 5772 5773 5775 5777 5779 5780 5781 5782 5782 5782 5784 5786 5789 5792 5793 5793 5794 5794 5794 5795 5796 5796 5795 5796 5798 5795 5792 5793 5795 5798 5797 5799 5801 5804 5804
5753 5752 5751 5751 5750 5749 5749 5749 5749 5749 5749 5749 5749 5750 5750 5750 5750 5751 5751 5751 5752 5752 5752 5753 5753 5753 5753 5753 5753 5753 5753 5754 5754 5754 5755 5755 5755 5756 5757 5757 5758 5759 5760 5761 5762 5763 5764 5765 5766 5766 5767 5768 5770 5771 5771 5773 5775 5776 5777 5779 5780 5779 5780 5783 5785 5788 5790 5790 5790 5791 5792 5793 5794 5793 5794 5793 5795 5798 5795 5790 5791 5794 5796 5794 5795 5798 5801 5802
5752 5752 5751 5750 5750 5749 5749 5748 5748 5748 5748 5748 5748 5748 5749 5749 5749 5749 5750 5750 5750 5751 5751 5751 5752 5752 5752 5752 5752 5752 5753 5753 5753 5753 5753 5754 5754 5755 5756 5756 5757 5758 5759 5760 5761 5762 5763 5764 5764 5765 5766 5767 5769 5769 5769 5771 5772 5773 5775 5777 5777 5777 5779 5781 5784 5786 5786 5787 5788 5788 5789 5791 5791 5791 5793 5793 5793 5794 5791 5788 5790 5792 5793 5792 5793 5795 5798 5800
5752 5751 5750 5750 5749 5749 5748 5748 5747 5747 5747 5747 5747 5747 5748 5748 5748 5748 5748 5748 5749 5749 5750 5750 5750 5750 5750 5750 5751 5751 5751 5752 5752 5752 5752 5753 5754 5754 5755 5755 5756 5757 5758 5759 5760 5761 5762 5763 5763 5764 5766 5766 5767 5768 5769 5771 5771 5771 5774 5776 5775 5777 5778 5780 5782 5783 5783 5785 5785 5785 5787 5788 5789 5790 5791 5793 5792 5789 5784 5786 5790 5791 5790 5789 5790 5792 5795 5797
5751 5750 5750 5749 5749 5748 5748 5747 5747 5746 5746 5746 5746 5746 5746 5746 5746 5747 5747 5747 5747 5747 5748 5748 5749 5749 5749 5749 5750 5750 5750 5751 5751 5751 5752 5752 5753 5754 5754 5755 5755 5756 5757 5758 5759 5760 5761 5762 5762 5764 5766 5766 5766 5768 5769 5770 5770 5771 5773 5774 5774 5775 5776 5778 5780 5780 5780 5781 5782 5784 5786 5786 5787 5787 5788 5790 5789 5784 5782 5786 5790 5788 5786 5787 5787 5788 5792 5795
5750 5750 5749 5749 5748 5748 5747 5747 5746 5746 5745 5745 5745 5745 5745 5745 5745 5745 5745 5745 5745 5745 5746 5746 5747 5747 5747 5748 5748 5749 5749 5750 5750 5751 5751 5752 5753 5753 5754 5754 5755 5756 5757 5758 5759 5760 5760 5761 5762 5763 5764 5764 5765 5767 5768 5768 5769 5770 5771 5772 5773 5773 5774 5777 5777 5777 5777 5777 5780 5782 5783 5783 5784 5784 5784 5785 5783 5781 5782 5786 5788 5786 5784 5785 5785 5785 5788 5791
5749 5749 5748 5748 5747 5747 5746 5746 5745 5745 5745 5744 5744 5744 5744 5744 5744 5744 5743 5744 5744 5744 5744 5745 5745 5746 5746 5746 5747 5747 5748 5749 5749 5749 5750 5751 5752 5752 5753 5754 5754 5755 5756 5757 5758 5758 5759 5760 5761 5762 5762 5762 5765 5766 5766 5766 5768 5769 5769 5770 5771 5771 5773 5773 5772 5773 5775 5776 5778 5779 5779 5780 5781 5781 5781 5780 5778 5779 5783 5785 5785 5784 5781 5782 5783 5783 5786 5788
5748 5748 5747 5747 5746 5746 5746 5745 5745 5744 5744 5743 5743 5743 5743 5743 5742 5742 5742 5742 5742 5742 5743 5743 5744 5744 5744 5744 5745 5746 5747 5747 5747 5748 5749 5749 5750 5751 5752 5752 5753 5754 5755 5756 5756 5757 5758 5759 5760 5760 5760 5761 5763 5764 5764 5765 5766 5766 5767 5768 5768 5769 5771 5771 5769 5770 5772 5773 5773 5775 5777 5778 5778 5778 5778 5776 5775 5777 5781 5782 5782 5782 5779 5779 5780 5781 5783 5784
5747 5747 5746 5746 5746 5745 5745 5744 5744 5743 5743 5742 5742 5742 5742 5741 5741 5741 5741 5741 5741 5741 5741 5741 5742 5742 5742 5743 5744 5744 5745 5745 5745 5746 5747 5747 5748 5749 5750 5751 5752 5752 5753 5754 5755 5755 5756 5757 5758 5758 5758 5759 5761 5761 5762 5763 5763 5763 5764 5765 5766 5767 5768 5768 5766 5767 5769 5769 5769 5771 5775 5776 5775 5775 5774 5773 5772 5774 5778 5779 5779 5780 5778 5777 5778 5778 5780 5781
5746 5746 5745 5745 5744 5744 5743 5743 5742 5742 5741 5741 5741 5740 5740 5740 5740 5740 5740 5740 5740 5740 5740 5740 5740 5740 5741 5741 5742 5743 5743 5743 5744 5744 5745 5745 5746 5747 5748 5748 5749 5750 5751 5752 5752 5753 5754 5755 5756 5756 5756 5757 5758 5759 5760 5760 5760 5760 5762 5763 5764 5765 5765 5765 5764 5763 5765 5765 5766 5768 5772 5774 5772 5771 5772 5771 5770 5771 5775 5777 5776 5776 5776 5775 5775 5775 5776 5777
5745 5744 5744 5744 5743 5743 5742 5742 5741 5741 5740 5740 5739 5739 5739 5739 5739 5739 5739 5739 5739 5738 5738 5738 5738 5739 5739 5739 5740 5741 5741 5741 5742 5742 5743 5743 5744 5744 5745 5746 5747 5748 5748 5749 5750 5751 5752 5752 5753 5754 5754 5755 5756 5757 5757 5757 5758 5759 5759 5760 5761 5763 5764 5764 5763 5761 5761 5762 5764 5765 5768 5772 5771 5768 5769 5769 5768 5769 5771 5774 5774 5773 5772 5773 5773 5773 5773 5774
5744 5743 5743 5742 5742 5741 5741 5740 5740 5739 5739 5739 5738 5738 5737 5737 5737 5737 5737 5737 5737 5737 5737 5737 5737 5737 5737 5738 5739 5739 5739 5739 5739 5740 5741 5741 5741 5742 5743 5743 5744 5745 5745 5746 5747 5748 5749 5750 5751 5751 5751 5753 5754 5754 5754 5755 5757 5758 5758 5758 5759 5761 5761 5761 5761 5761 5759 5759 5761 5762 5764 5767 5770 5768 5767 5765 5763 5765 5769 5771 5771 5771 5769 5769 5770 5770 5770 5770
5742 5742 5741 5741 5740 5740 5739 5739 5738 5738 5737 5737 5737 5737 5736 5736 5736 5736 5736 5736 5735 5735 5735 5735 5735 5735 5736 5737 5738 5737 5736 5737 5737 5738 5739 5739 5739 5739 5740 5741 5742 5743 5742 5743 5744 5745 5747 5748 5748 5748 5748 5750 5751 5751 5752 5753 5755 5756 5756 5757 5757 5759 5759 5758 5758 5758 5757 5757 5758 5760 5761 5762 5765 5767 5767 5764 5760 5759 5764 5768 5768 5768 5767 5766 5767 5768 5767 5767
5740 5740 5739 5739 5739 5738 5738 5737 5737 5736 5736 5736 5735 5735 5735 5735 5734 5734 5734 5734 5734 5734 5734 5734 5734 5734 5734 5735 5736 5735 5734 5734 5735 5737 5737 5737 5737 5737 5738 5739 5739 5740 5740 5740 5741 5743 5744 5745 5745 5744 5745 5748 5748 5748 5750 5751 5753 5754 5754 5754 5755 5756 5757 5756 5755 5754 5754 5755 5757 5758 5759 5758 5760 5763 5765 5764 5760 5755 5757 5764 5767 5765 5764 5763 5764 5764 5764 5764
5738 5738 5738 5737 5737 5736 5736 5735 5735 5735 5734 5734 5733 5733 5733 5733 5733 5733 5733 5733 5733 5732 5732 5732 5732 5733 5733 5733 5733 5732 5732 5732 5734 5735 5735 5734 5734 5734 5736 5737 5737 5737 5737 5737 5738 5739 5741 5742 5741 5741 5744 5745 5745 5745 5746 5749 5750 5751 5751 5751 5753 5754 5755 5755 5752 5749 5750 5751 5754 5756 5755 5755 5757 5760 5761 5760 5758 5755 5753 5758 5763 5763 5761 5761 5760 5760 5760 5761
5737 5736 5736 5735 5735 5734 5734 5733 5733 5733 5732 5732 5732 5731 5731 5731 5731 5731 5731 5731 5731 5731 5731 5731 5731 5732 5732 5731 5731 5730 5730 5730 5731 5734 5734 5732 5731 5732 5734 5734 5734 5735 5735 5735 5735 5736 5737 5738 5739 5739 5742 5742 5741 5742 5743 5745 5747 5747 5748 5749 5750 5751 5752 5752 5749 5747 5746 5747 5750 5752 5751 5752 5755 5756 5757 5756 5754 5754 5752 5752 5757 5760 5759 5759 5757 5756 5756 5757
5735 5734 5733 5733 5732 5732 5731 5731 5731 5731 5730 5730 5730 5729 5729 5729 5729 5729 5729 5729 5730 5730 5729 5729 5729 5730 5730 5729 5729 5729 5728 5728 5729 5731 5732 5730 5729 5730 5731 5731 5732 5732 5733 5733 5732 5733 5734 5734 5735 5737 5738 5739 5739 5739 5740 5742 5743 5744 5745 5746 5747 5748 5749 5748 5747 5745 5744 5745 5747 5748 5745 5747 5752 5752 5752 5753 5751 5751 5751 5749 5751 5755 5756 5756 5754 5753 5753 5753
5733 5732 5732 5731 5731 5730 5730 5729 5729 5729 5728 5728 5728 5727 5727 5727 5727 5727 5726 5727 5727 5728 5728 5728 5728 5728 5728 5727 5727 5727 5727 5726 5727 5729 5729 5728 5727 5728 5728 5729 5729 5730 5731 5729 5728 5729 5730 5731 5732 5734 5734 5735 5736 5737 5738 5738 5739 5740 5741 5742 5743 5744 5745 5744 5744 5742 5740 5741 5743 5744 5742 5742 5747 5749 5748 5748 5748 5748 5749 5747 5747 5750 5751 5752 5751 5750 5749 5750
5731 5731 5730 5730 5729 5729 5728 5728 5728 5727 5727 5727 5726 5726 5725 5725 5725 5725 5724 5724 5724 5725 5726 5727 5726 5726 5726 5726 5726 5726 5725 5724 5726 5727 5727 5726 5725 5726 5726 5726 5726 5728 5728 5727 5727 5727 5728 5728 5729 5730 5731 5731 5733 5734 5734 5734 5734 5735 5737 5738 5739 5739 5740 5739 5740 5739 5737 5737 5738 5739 5740 5738 5741 5745 5744 5743 5743 5744 5745 5745 5745 5745 5746 5748 5748 5747 5747 5747
5730 5729 5729 5729 5728 5728 5728 5727 5727 5727 5726 5726 5725 5725 5724 5724 5724 5723 5723 5723 5723 5723 5724 5725 5725 5724 5725 5724 5724 5724 5724 5723 5723 5725 5725 5724 5724 5724 5724 5724 5725 5725 5724 5724 5725 5726 5726 5725 5725 5727 5728 5728 5730 5731 5730 5730 5731 5732 5733 5734 5735 5735 5735 5735 5735 5736 5735 5734 5734 5736 5737 5736 5737 5741 5740 5739 5739 5739 5739 5741 5742 5741 5741 5743 5744 5744 5745 5745
5729 5728 5728 5728 5727 5727 5727 5726 5726 5726 5726 5725 5725 5724 5724 5723 5723 5722 5722 5722 5722 5722 5722 5723 5723 5723 5723 5723 5722 5721 5721 5721 5721 5722 5723 5722 5722 5722 5722 5722 5722 5723 5722 5722 5723 5723 5724 5723 5722 5724 5725 5726 5727 5728 5727 5727 5728 5729 5729 5730 5731 5731 5731 5731 5731 5733 5732 5731 5733 5735 5734 5732 5733 5737 5736 5736 5736 5736 5736 5736 5737 5737 5737 5740 5741 5741 5742 5743
5728 5727 5727 5727 5727 5726 5726 5726 5726 5725 5725 5725 5724 5724 5723 5723 5722 5722 5722 5721 5721 5722 5721 5722 5722 5722 5721 5721 5721 5720 5719 5719 5719 5719 5720 5720 5720 5720 5720 5720 5720 5720 5720 5720 5722 5722 5722 5721 5720 5721 5723 5724 5725 5725 5724 5724 5724 5725 5726 5726 5728 5728 5728 5728 5729 5730 5729 5730 5732 5733 5732 5729 5730 5733 5734 5733 5734 5734 5733 5733 5734 5734 5734 5736 5739 5739 5739 5739
5727 5727 5726 5726 5726 5726 5726 5725 5725 5725 5725 5724 5724 5723 5723 5722 5722 5722 5721 5721 5721 5721 5720 5720 5720 5720 5719 5719 5718 5718 5717 5717 5717 5717 5717 5718 5718 5718 5718 5718 5718 5718 5718 5718 5719 5720 5719 5719 5719 5720 5721 5722 5722 5722 5722 5721 5721 5722 5723 5724 5724 5725 5725 5725 5726 5726 5726 5728 5729 5729 5729 5727 5727 5730 5731 5731 5732 5732 5731 5732 5732 5732 5732 5733 5734 5737 5737 5737
5726 5726 5726 5726 5726 5725 5725 5725 5725 5725 5724 5724 5723 5723 5723 5722 5722 5721 5721 5720 5720 5720 5720 5719 5719 5718 5718 5717 5717 5716 5716 5715 5714 5714 5714 5715 5715 5716 5716 5716 5716 5716 5716 5716 5716 5717 5717 5717 5717 5717 5719 5720 5719 5719 5720 5719 5719 5720 5721 5722 5722 5723 5722 5722 5722 5722 5723 5726 5726 5726 5726 5724 5724 5727 5729 5729 5731 5731 5730 5731 5731 5731 5731 5730 5730 5732 5734 5734
5726 5726 5725 5725 5725 5725 5724 5724 5724 5724 5724 5723 5723 5722 5722 5721 5721 5721 5720 5719 5719 5719 5719 5718 5718 5718 5718 5718 5717 5716 5716 5716 5715 5713 5712 5712 5712 5713 5713 5713 5713 5714 5715 5714 5714 5714 5715 5715 5715 5715 5715 5716 5717 5717 5718 5718 5717 5718 5719 5719 5719 5720 5720 5719 5719 5719 5720 5721 5722 5723 5722 5722 5723 5725 5726 5728 5729 5729 5729 5729 5729 5730 5730 5729 5727 5728 5729 5729
5725 5725 5725 5725 5724 5724 5724 5723 5723 5723 5723 5722 5722 5722 5721 5721 5720 5720 5719 5719 5718 5718 5718 5716 5716 5716 5716 5716 5716 5715 5715 5715 5714 5713 5712 5711 5711 5710 5710 5710 5710 5711 5712 5712 5711 5711 5711 5712 5713 5714 5713 5713 5714 5716 5716 5716 5715 5715 5716 5716 5716 5717 5717 5717 5718 5718 5717 5717 5718 5719 5720 5720 5722 5723 5724 5727 5727 5728 5728 5727 5726 5726 5727 5727 5725 5724 5724 5723
5724 5724 5724 5724 5723 5723 5723 5722 5722 5722 5722 5721 5721 5720 5720 5720 5719 5718 5718 5717 5716 5716 5716 5716 5714 5714 5714 5714 5714 5713 5713 5714 5713 5712 5711 5710 5709 5709 5709 5709 5709 5709 5710 5709 5709 5709 5709 5710 5711 5712 5712 5711 5712 5713 5714 5714 5713 5712 5712 5713 5713 5715 5715 5715 5715 5716 5715 5715 5715 5717 5717 5718 5719 5721 5723 5725 5726 5727 5727 5727 5725 5723 5723 5724 5724 5722 5721 5720
5723 5723 5723 5723 5722 5722 5722 5721 5721 5721 5720 5720 5719 5719 5719 5718 5717 5716 5716 5716 5715 5714 5714 5714 5713 5712 5712 5712 5712 5712 5712 5713 5711 5710 5709 5708 5707 5708 5708 5708 5708 5708 5708 5707 5706 5706 5706 5707 5708 5709 5710 5710 5710 5710 5710 5711 5712 5711 5710 5711 5711 5712 5712 5712 5712 5712 5712 5712 5713 5714 5715 5715 5716 5718 5721 5722 5723 5724 5724 5723 5723 5722 5720 5719 5720 5720 5719 5718
5722 5722 5721 5721 5721 5721 5720 5720 5720 5719 5719 5718 5718 5717 5717 5716 5715 5714 5715 5715 5713 5712 5712 5712 5711 5711 5710 5710 5710 5710 5708 5709 5708 5707 5707 5706 5705 5706 5706 5706 5707 5706 5705 5704 5703 5703 5702 5704 5706 5707 5707 5708 5708 5707 5706 5707 5709 5710 5710 5710 5711 5711 5710 5709 5708 5708 5709 5708 5709 5711 5712 5713 5714 5715 5718 5719 5718 5718 5718 5717 5718 5718 5716 5714 5714 5715 5715 5715
5720 5720 5720 5719 5719 5719 5718 5718 5718 5718 5717 5717 5716 5716 5715 5715 5713 5711 5712 5713 5711 5710 5710 5709 5708 5708 5707 5706 5707 5707 5705 5704 5704 5703 5703 5703 5702 5703 5703 5703 5704 5704 5702 5699 5698 5699 5699 5700 5704 5705 5705 5705 5704 5704 5703 5704 5705 5707 5708 5708 5708 5708 5707 5706 5705 5705 5705 5704 5705 5707 5708 5710 5711 5712 5714 5715 5714 5713 5713 5712 5712 5712 5711 5710 5710 5710 5710 5710
5718 5718 5718 5717 5717 5717 5716 5716 5716 5715 5715 5714 5714 5713 5712 5713 5711 5709 5709 5710 5709 5709 5707 5706 5705 5704 5704 5703 5703 5704 5703 5701 5699 5698 5699 5699 5699 5699 5700 5700 5700 5701 5699 5697 5694 5695 5696 5696 5698 5701 5702 5702 5701 5701 5701 5701 5702 5703 5704 5703 5704 5704 5704 5703 5702 5701 5701 5700 5700 5701 5703 5705 5708 5710 5711 5710 5707 5706 5707 5707 5706 5707 5707 5707 5706 5705 5705 5706
5716 5716 5716 5715 5715 5715 5714 5713 5713 5713 5712 5711 5711 5710 5709 5709 5709 5707 5706 5705 5705 5706 5704 5702 5702 5700 5699 5699 5699 5699 5699 5698 5697 5696 5695 5696 5695 5695 5695 5695 5695 5696 5695 5694 5693 5692 5692 5691 5691 5694 5697 5698 5698 5699 5699 5700 5700 5700 5699 5699 5700 5701 5700 5699 5698 5698 5697 5696 5696 5697 5697 5700 5704 5706 5706 5705 5702 5702 5703 5703 5702 5703 5704 5704 5704 5703 5703 5704
5713 5713 5713 5713 5713 5712 5712 5711 5710 5710 5709 5708 5708 5708 5706 5706 5706 5704 5703 5701 5699 5700 5700 5699 5698 5697 5695 5695 5694 5694 5693 5693 5693 5693 5692 5692 5692 5690 5688 5688 5689 5690 5689 5689 5689 5688 5688 5687 5686 5689 5691 5692 5694 5695 5696 5695 5695 5695 5694 5694 5695 5695 5695 5693 5693 5694 5694 5693 5693 5693 5692 5695 5700 5701 5701 5700 5699 5699 5700 5700 5699 5699 5699 5700 5700 5700 5701 5702
5710 5710 5710 5710 5710 5709 5708 5708 5707 5706 5706 5705 5705 5704 5702 5702 5701 5700 5699 5698 5695 5695 5694 5694 5693 5692 5691 5690 5690 5689 5688 5687 5687 5688 5688 5688 5688 5686 5683 5682 5683 5685 5685 5683 5682 5682 5682 5683 5683 5684 5685 5686 5688 5690 5690 5690 5691 5691 5691 5691 5690 5690 5689 5688 5687 5689 5690 5689 5689 5688 5686 5691 5697 5697 5696 5696 5696 5697 5697 5696 5696 5695 5694 5694 5694 5694 5696 5697
5707 5707 5707 5707 5706 5705 5704 5704 5703 5702 5701 5700 5700 5700 5698 5697 5696 5695 5694 5694 5691 5690 5690 5689 5688 5687 5686 5685 5684 5684 5683 5682 5681 5682 5682 5682 5683 5681 5679 5678 5678 5678 5679 5679 5678 5677 5678 5678 5678 5678 5679 5680 5682 5684 5685 5686 5686 5685 5685 5685 5685 5684 5684 5683 5682 5683 5683 5682 5684 5683 5681 5687 5694 5693 5692 5693 5693 5694 5694 5692 5691 5690 5689 5688 5689 5689 5690 5692
5704 5703 5704 5704 5703 5701 5700 5700 5699 5698 5697 5695 5694 5694 5693 5692 5691 5689 5688 5689 5688 5685 5684 5684 5683 5682 5682 5680 5679 5678 5678 5677 5676 5677 5677 5676 5677 5676 5675 5674 5672 5672 5673 5673 5672 5674 5674 5673 5672 5671 5672 5674 5676 5678 5679 5679 5678 5678 5679 5679 5679 5680 5679 5678 5677 5676 5675 5676 5678 5676 5675 5682 5689 5688 5688 5688 5688 5688 5687 5686 5685 5684 5684 5684 5685 5686 5686 5687
5701 5700 5700 5700 5699 5698 5696 5695 5695 5694 5693 5692 5690 5690 5688 5687 5687 5684 5681 5682 5684 5682 5679 5678 5677 5677 5676 5675 5673 5673 5672 5672 5671 5671 5671 5671 5671 5671 5670 5669 5667 5667 5668 5668 5667 5668 5668 5667 5667 5667 5666 5667 5669 5672 5673 5673 5672 5672 5673 5674 5675 5676 5675 5674 5672 5670 5670 5671 5672 5671 5671 5676 5681 5682 5682 5683 5682 5681 5680 5678 5678 5678 5679 5679 5679 5680 5681 5681
5697 5696 5696 5695 5694 5693 5692 5691 5690 5689 5688 5687 5686 5686 5684 5683 5683 5681 5677 5675 5677 5676 5674 5673 5672 5671 5671 5670 5668 5667 5667 5667 5666 5665 5665 5665 5666 5666 5667 5665 5662 5660 5662 5662 5661 5662 5661 5661 5662 5662 5662 5662 5663 5665 5666 5666 5666 5666 5667 5668 5670 5671 5670 5668 5666 5665 5666 5666 5666 5667 5668 5669 5673 5676 5678 5679 5676 5673 5670 5670 5671 5672 5672 5672 5671 5672 5673 5674
5692 5692 5692 5691 5690 5688 5687 5686 5685 5683 5682 5681 5680 5680 5680 5678 5677 5677 5675 5672 5671 5669 5668 5668 5668 5667 5665 5663 5662 5661 5661 5661 5660 5659 5659 5659 5660 5661 5662 5661 5657 5654 5655 5656 5655 5656 5656 5655 5656 5657 5657 5658 5657 5657 5658 5659 5659 5660 5661 5662 5664 5665 5663 5661 5660 5661 5662 5659 5658 5663 5664 5662 5665 5671 5673 5673 5669 5663 5661 5661 5662 5663 5664 5665 5665 5665 5665 5666
5688 5687 5687 5686 5685 5684 5682 5681 5680 5679 5677 5676 5674 5673 5672 5672 5671 5671 5670 5668 5666 5663 5661 5661 5662 5663 5661 5658 5657 5656 5655 5656 5655 5653 5653 5655 5656 5656 5656 5655 5652 5651 5651 5650 5650 5650 5650 5649 5650 5651 5652 5652 5651 5651 5651 5651 5652 5654 5655 5657 5659 5658 5656 5654 5654 5655 5656 5652 5652 5657 5658 5656 5659 5664 5665 5663 5659 5656 5654 5654 5654 5654 5655 5656 5657 5658 5658 5659
5683 5682 5681 5681 5680 5679 5677 5676 5676 5674 5672 5671 5669 5668 5667 5665 5665 5664 5664 5664 5662 5659 5656 5655 5655 5656 5656 5654 5653 5651 5650 5649 5648 5647 5649 5652 5653 5652 5651 5650 5648 5647 5647 5646 5645 5644 5642 5642 5643 5644 5646 5647 5646 5645 5645 5645 5646 5647 5650 5652 5651 5649 5648 5649 5649 5650 5649 5648 5648 5651 5650 5649 5653 5655 5654 5652 5651 5649 5648 5646 5646 5646 5647 5649 5650 5650 5650 5650
5678 5677 5676 5675 5675 5673 5672 5671 5670 5669 5668 5665 5663 5663 5662 5661 5660 5659 5658 5658 5658 5656 5653 5651 5648 5649 5650 5650 5650 5647 5644 5643 5642 5643 5645 5647 5647 5647 5645 5644 5644 5643 5642 5641 5640 5639 5637 5636 5636 5635 5637 5639 5639 5638 5640 5640 5640 5641 5644 5644 5642 5641 5643 5644 5644 5644 5643 5642 5643 5643 5640 5643 5647 5646 5643 5643 5644 5642 5640 5640 5640 5640 5641 5642 5641 5641 5640 5640
5673 5672 5671 5670 5670 5668 5667 5666 5664 5663 5661 5660 5659 5658 5657 5655 5654 5654 5653 5652 5652 5652 5649 5645 5644 5644 5645 5645 5644 5641 5639 5638 5639 5640 5640 5640 5640 5640 5638 5637 5638 5638 5637 5637 5635 5634 5632 5632 5632 5630 5629 5630 5631 5630 5633 5634 5634 5636 5637 5636 5635 5636 5638 5638 5637 5638 5636 5635 5635 5634 5632 5634 5638 5637 5634 5635 5636 5635 5634 5635 5635 5634 5634 5632 5630 5630 5631 5631
5667 5666 5665 5665 5664 5663 5662 5661 5659 5657 5655 5653 5653 5653 5651 5650 5649 5648 5647 5646 5646 5646 5643 5641 5640 5640 5639 5639 5638 5636 5636 5636 5635 5634 5633 5633 5633 5633 5632 5631 5631 5630 5631 5631 5631 5629 5628 5627 5627 5625 5623 5625 5624 5622 5625 5627 5626 5629 5631 5631 5630 5630 5629 5629 5631 5631 5629 5627 5626 5625 5625 5626 5628 5628 5628 5628 5629 5629 5630 5629 5627 5626 5625 5622 5620 5620 5622 5623